This is the latest recevied weather packets stored in our database for station/object KE6LRO. If no packets are shown the sender has not sent any weather packets the latest 10 day(s).
| Time | Temp. | Humidity | Pressure | Rain* | Wind** | Luminosity | Snow |
|---|---|---|---|---|---|---|---|
| 1777940955 | 17.78° C | 38% | 1014.8 hPa | 0 mm | - | 124 W/m² | - |
| 1777940652 | 18.33° C | 39% | 1014.7 hPa | 0 mm | - | 133 W/m² | - |
| 1777940350 | 18.33° C | 38% | 1014.7 hPa | 0 mm | - | 175 W/m² | - |
| 1777940047 | 18.89° C | 39% | 1014.6 hPa | 0 mm | - | 196 W/m² | - |
| 1777939744 | 18.89° C | 36% | 1014.8 hPa | 0 mm | - | 298 W/m² | - |
| 1777939442 | 18.33° C | 37% | 1014.6 hPa | 0 mm | - | 271 W/m² | - |
| 1777939138 | 18.33° C | 39% | 1014.6 hPa | 0 mm | - | 193 W/m² | - |
| 1777938835 | 18.89° C | 39% | 1014.4 hPa | 0 mm | - | 189 W/m² | - |
| 1777938531 | 19.44° C | 36% | 1014.5 hPa | 0 mm | - | 190 W/m² | - |
| 1777938230 | 18.89° C | 36% | 1014.4 hPa | 0 mm | - | 277 W/m² | - |
| 1777937926 | 19.44° C | 37% | 1014.4 hPa | 0 mm | - | 240 W/m² | - |
| 1777937621 | 20° C | 36% | 1014.1 hPa | 0 mm | - | 270 W/m² | - |
| 1777937319 | 20° C | 40% | 1014.1 hPa | 0 mm | - | 310 W/m² | - |
| 1777937016 | 20° C | 37% | 1014.3 hPa | 0 mm | - | 375 W/m² | - |
| 1777936712 | 19.44° C | 37% | 1014.3 hPa | 0 mm | - | 333 W/m² | - |
| 1777936409 | 19.44° C | 36% | 1014.4 hPa | 0 mm | - | 205 W/m² | - |
| 1777936105 | 19.44° C | 35% | 1014.2 hPa | 0 mm | - | 236 W/m² | - |
| 1777935803 | 19.44° C | 36% | 1014.2 hPa | 0 mm | - | 270 W/m² | - |
| 1777935502 | 19.44° C | 36% | 1014.3 hPa | 0 mm | - | 372 W/m² | - |
| 1777935197 | 18.89° C | 36% | 1014.1 hPa | 0 mm | - | 275 W/m² | - |
| 1777934895 | 19.44° C | 36% | 1014.1 hPa | 0 mm | - | 416 W/m² | - |
| 1777934592 | 19.44° C | 37% | 1014.3 hPa | 0 mm | - | 414 W/m² | - |
| 1777934289 | 20° C | 36% | 1014.1 hPa | 0 mm | - | 347 W/m² | - |
| 1777933984 | 19.44° C | 36% | 1014.3 hPa | 0 mm | - | 252 W/m² | - |
| 1777933681 | 20° C | 35% | 1014.2 hPa | 0 mm | - | 336 W/m² | - |
* Rain latest hour (hover to see other rain measurements)
** Current wind speed in m/s (hover to see current wind gust speed)